| time (UTC) | temp F | wind direction | speed MPH | gust MPH | rain 1hr in | rain 24hr in | rain mn in | humidity % | barometer mb |
| 20260503013024 | 82 | 246 | 1.0 | 7.0 | 0.00 | 0.00 | 0.00 | 66 | 1013.6 |
| 20260503011514 | 82 | 254 | 2.0 | 7.0 | 0.00 | 0.00 | 0.00 | 64 | 1013.5 |
| 20260503010008 | 82 | 256 | 0.0 | 6.0 | 0.00 | 0.00 | 0.00 | 62 | 1013.2 |
| 20260503004540 | 83 | 248 | 1.0 | 6.0 | 0.00 | 0.00 | 0.00 | 60 | 1012.9 |
| 20260503003015 | 84 | 298 | 2.0 | 7.0 | 0.00 | 0.00 | 0.00 | 58 | 1012.9 |
| 20260503001516 | 84 | 311 | 1.0 | 6.0 | 0.00 | 0.00 | 0.00 | 56 | 1012.7 |
| 20260503000012 | 85 | 233 | 2.0 | 6.0 | 0.00 | 0.00 | 0.00 | 54 | 1012.5 |
| 20260502234512 | 87 | 267 | 2.0 | 8.0 | 0.00 | 0.00 | 0.00 | 51 | 1012.3 |
| 20260502233016 | 88 | 328 | 1.0 | 4.0 | 0.00 | 0.00 | 0.00 | 47 | 1011.9 |
| 20260502231516 | 89 | 149 | 1.0 | 4.0 | 0.00 | 0.00 | 0.00 | 46 | 1011.7 |
| 20260502230017 | 90 | 240 | 2.0 | 8.0 | 0.00 | 0.00 | 0.00 | 43 | 1011.5 |
| 20260502224509 | 90 | 253 | 2.0 | 8.0 | 0.00 | 0.00 | 0.00 | 41 | 1011.1 |
| 20260502223012 | 91 | 245 | 1.0 | 7.0 | 0.00 | 0.00 | 0.00 | 41 | 1010.8 |
| 20260502221518 | 92 | 258 | 2.0 | 7.0 | 0.00 | 0.00 | 0.00 | 40 | 1011.0 |
| 20260502220031 | 93 | 266 | 4.0 | 8.0 | 0.00 | 0.00 | 0.00 | 39 | 1011.0 |
| 20260502214518 | 94 | 219 | 3.0 | 8.0 | 0.00 | 0.00 | 0.00 | 38 | 1011.0 |
| 20260502213012 | 94 | 248 | 3.0 | 10.0 | 0.00 | 0.00 | 0.00 | 37 | 1010.7 |
| 20260502211528 | 94 | 227 | 2.0 | 9.0 | 0.00 | 0.00 | 0.00 | 37 | 1010.4 |
| 20260502210022 | 94 | 265 | 3.0 | 10.0 | 0.00 | 0.00 | 0.00 | 36 | 1010.3 |
| 20260502204522 | 95 | 267 | 3.0 | 12.0 | 0.00 | 0.00 | 0.00 | 35 | 1010.4 |
| 20260502203010 | 96 | 257 | 3.0 | 10.0 | 0.00 | 0.00 | 0.00 | 36 | 1010.4 |
| 20260502201515 | 95 | 236 | 2.0 | 8.0 | 0.00 | 0.00 | 0.00 | 38 | 1010.6 |
| 20260502200020 | 95 | 269 | 4.0 | 11.0 | 0.00 | 0.00 | 0.00 | 36 | 1010.8 |
| 20260502194504 | 95 | 226 | 3.0 | 11.0 | 0.00 | 0.00 | 0.00 | 38 | 1011.1 |
| 20260502193006 | 95 | 208 | 2.0 | 10.0 | 0.00 | 0.00 | 0.00 | 39 | 1011.1 |
| 20260502191521 | 95 | 190 | 2.0 | 10.0 | 0.00 | 0.00 | 0.00 | 40 | 1011.3 |
| 20260502190020 | 95 | 263 | 2.0 | 11.0 | 0.00 | 0.00 | 0.00 | 38 | 1011.4 |
| 20260502184523 | 94 | 267 | 2.0 | 8.0 | 0.00 | 0.00 | 0.00 | 43 | 1011.2 |
| 20260502183006 | 95 | 142 | 2.0 | 11.0 | 0.00 | 0.00 | 0.00 | 43 | 1011.3 |
| 20260502181509 | 94 | 225 | 2.0 | 10.0 | 0.00 | 0.00 | 0.00 | 46 | 1011.5 |
| 20260502163032 | 92 | 219 | 2.0 | 4.0 | 0.00 | 0.00 | 0.00 | 56 | 1012.2 |
| 20260502161509 | 91 | 150 | 1.0 | 3.0 | 0.00 | 0.00 | 0.00 | 59 | 1012.1 |
| 20260502151527 | 88 | 236 | 1.0 | 4.0 | 0.00 | 0.00 | 0.00 | 62 | 1012.8 |
| 20260502123021 | 82 | 253 | 0.0 | 4.0 | 0.00 | 0.00 | 0.00 | 78 | 1012.4 |
| 20260502121522 | 81 | 242 | 0.0 | 3.0 | 0.00 | 0.00 | 0.00 | 80 | 1012.2 |
| 20260502114510 | 78 | 167 | 0.0 | 0.0 | 0.00 | 0.00 | 0.00 | 85 | 1012.3 |
| 20260502113019 | 76 | 60 | 0.0 | 0.0 | 0.00 | 0.00 | 0.00 | 87 | 1012.2 |
| 20260502111522 | 75 | 60 | 0.0 | 0.0 | 0.00 | 0.00 | 0.00 | 87 | 1012.3 |
| 20260502110006 | 75 | 51 | 0.0 | 0.0 | 0.00 | 0.00 | 0.00 | 85 | 1012.4 |
| 20260502104533 | 75 | 51 | 0.0 | 0.0 | 0.00 | 0.00 | 0.00 | 84 | 1012.4 |
| 20260502103015 | 75 | 51 | 0.0 | 0.0 | 0.00 | 0.00 | 0.00 | 84 | 1012.2 |
| 20260502101520 | 75 | 51 | 0.0 | 0.0 | 0.00 | 0.00 | 0.00 | 84 | 1012.2 |
| 20260502091522 | 74 | 27 | 0.0 | 0.0 | 0.00 | 0.00 | 0.00 | 84 | 1012.3 |
| 20260502071529 | 75 | 304 | 0.0 | 0.0 | 0.00 | 0.00 | 0.00 | 85 | 1012.2 |
| 20260502070021 | 75 | 263 | 0.0 | 0.0 | 0.00 | 0.00 | 0.00 | 85 | 1012.3 |
| 20260502064526 | 75 | 263 | 0.0 | 0.0 | 0.00 | 0.00 | 0.00 | 85 | 1012.3 |
| 20260502063006 | 75 | 263 | 0.0 | 0.0 | 0.00 | 0.00 | 0.00 | 85 | 1012.3 |
| 20260502061513 | 75 | 263 | 0.0 | 0.0 | 0.00 | 0.00 | 0.00 | 84 | 1012.5 |
| 20260502060018 | 75 | 263 | 0.0 | 0.0 | 0.00 | 0.00 | 0.00 | 83 | 1012.4 |
| 20260502054524 | 75 | 263 | 0.0 | 0.0 | 0.00 | 0.00 | 0.00 | 83 | 1012.4 |
| 20260502053004 | 76 | 263 | 0.0 | 0.0 | 0.00 | 0.00 | 0.00 | 82 | 1012.3 |
| 20260502051525 | 76 | 263 | 0.0 | 0.0 | 0.00 | 0.00 | 0.00 | 81 | 1012.6 |
| 20260502050016 | 76 | 263 | 0.0 | 0.0 | 0.00 | 0.00 | 0.00 | 80 | 1012.7 |
| 20260502044523 | 76 | 263 | 0.0 | 0.0 | 0.00 | 0.00 | 0.00 | 79 | 1012.6 |
| 20260502043025 | 77 | 263 | 0.0 | 0.0 | 0.00 | 0.00 | 0.00 | 78 | 1012.8 |
| 20260502041508 | 77 | 263 | 0.0 | 0.0 | 0.00 | 0.00 | 0.00 | 77 | 1012.8 |
| 20260502040014 | 77 | 263 | 0.0 | 0.0 | 0.00 | 0.00 | 0.00 | 76 | 1013.2 |
| 20260502034535 | 78 | 263 | 0.0 | 0.0 | 0.00 | 0.00 | 0.00 | 77 | 1013.3 |
| 20260502033030 | 78 | 263 | 0.0 | 0.0 | 0.00 | 0.00 | 0.00 | 77 | 1013.2 |
| 20260502031507 | 78 | 276 | 0.0 | 0.0 | 0.00 | 0.00 | 0.00 | 75 | 1013.1 |
| 20260502030014 | 79 | 277 | 0.0 | 1.0 | 0.00 | 0.00 | 0.00 | 74 | 1013.1 |
| 20260502024523 | 79 | 281 | 0.0 | 2.0 | 0.00 | 0.00 | 0.00 | 75 | 1013.1 |
| 20260502023027 | 80 | 236 | 0.0 | 2.0 | 0.00 | 0.00 | 0.00 | 75 | 1012.7 |
| 20260502021526 | 80 | 222 | 0.0 | 2.0 | 0.00 | 0.00 | 0.00 | 74 | 1012.5 |
| 20260502020012 | 80 | 224 | 0.0 | 0.0 | 0.00 | 0.00 | 0.00 | 73 | 1012.3 |
| 20260502014523 | 81 | 285 | 0.0 | 2.0 | 0.00 | 0.00 | 0.00 | 72 | 1012.4 |